Year,Month,Day,Hour,Minute,Value (Times are PST for temperature in C)
2016,03,19,00,00,6.30
2016,03,19,00,01,6.30
2016,03,19,00,02,6.30
2016,03,19,00,03,6.40
2016,03,19,00,04,6.40
2016,03,19,00,05,6.40
2016,03,19,00,06,6.40
2016,03,19,00,07,6.40
2016,03,19,00,08,6.40
2016,03,19,00,09,6.40
2016,03,19,00,10,6.40
2016,03,19,00,11,6.40
2016,03,19,00,12,6.40
2016,03,19,00,13,6.40
2016,03,19,00,14,6.40
2016,03,19,00,15,6.40
2016,03,19,00,16,6.40
2016,03,19,00,17,6.40
2016,03,19,00,18,6.40
2016,03,19,00,19,6.40
2016,03,19,00,20,6.40
2016,03,19,00,21,6.40
2016,03,19,00,22,6.40
2016,03,19,00,23,6.40
2016,03,19,00,24,6.40
2016,03,19,00,25,6.40
2016,03,19,00,26,6.40
2016,03,19,00,27,6.40
2016,03,19,00,28,6.40
2016,03,19,00,29,6.50
2016,03,19,00,30,6.50
2016,03,19,00,31,6.50
2016,03,19,00,32,6.50
2016,03,19,00,33,6.50
2016,03,19,00,34,6.50
2016,03,19,00,35,6.50
2016,03,19,00,36,6.50
2016,03,19,00,37,6.50
2016,03,19,00,38,6.60
2016,03,19,00,39,6.60
2016,03,19,00,40,6.60
2016,03,19,00,41,6.60
2016,03,19,00,42,6.60
2016,03,19,00,43,6.60
2016,03,19,00,44,6.60
2016,03,19,00,45,6.60
2016,03,19,00,46,6.60
2016,03,19,00,47,6.60
2016,03,19,00,48,6.60
2016,03,19,00,49,6.60
2016,03,19,00,50,6.70
2016,03,19,00,51,6.70
2016,03,19,00,52,6.70
2016,03,19,00,53,6.70
2016,03,19,00,54,6.70
2016,03,19,00,55,6.70
2016,03,19,00,56,6.70
2016,03,19,00,57,6.70
2016,03,19,00,58,6.70
2016,03,19,00,59,6.70
2016,03,19,01,00,6.70
2016,03,19,01,01,6.70
2016,03,19,01,02,6.70
2016,03,19,01,03,6.70
2016,03,19,01,04,6.70
2016,03,19,01,05,6.70
2016,03,19,01,06,6.70
2016,03,19,01,07,6.70
2016,03,19,01,08,6.70
2016,03,19,01,09,6.70
2016,03,19,01,10,6.70
2016,03,19,01,11,6.70
2016,03,19,01,12,6.70
2016,03,19,01,13,6.70
2016,03,19,01,14,6.70
2016,03,19,01,15,6.70
2016,03,19,01,16,6.70
2016,03,19,01,17,6.70
2016,03,19,01,18,6.70
2016,03,19,01,19,6.70
2016,03,19,01,20,6.70
2016,03,19,01,21,6.70
2016,03,19,01,22,6.70
2016,03,19,01,23,6.70
2016,03,19,01,24,6.70
2016,03,19,01,25,6.70
2016,03,19,01,26,6.70
2016,03,19,01,27,6.70
2016,03,19,01,28,6.70
2016,03,19,01,29,6.70
2016,03,19,01,30,6.70
2016,03,19,01,31,6.70
2016,03,19,01,32,6.70
2016,03,19,01,33,6.70
2016,03,19,01,34,6.70
2016,03,19,01,35,6.70
2016,03,19,01,36,6.70
2016,03,19,01,37,6.70
2016,03,19,01,38,6.70
2016,03,19,01,39,6.70
2016,03,19,01,40,6.70
2016,03,19,01,41,6.70
2016,03,19,01,42,6.70
2016,03,19,01,43,6.80
2016,03,19,01,44,6.80
2016,03,19,01,45,6.80
2016,03,19,01,46,6.80
2016,03,19,01,47,6.80
2016,03,19,01,48,6.80
2016,03,19,01,49,6.80
2016,03,19,01,50,6.80
2016,03,19,01,51,6.80
2016,03,19,01,52,6.80
2016,03,19,01,53,6.80
2016,03,19,01,54,6.80
2016,03,19,01,55,6.80
2016,03,19,01,56,6.80
2016,03,19,01,57,6.80
2016,03,19,01,58,6.80
2016,03,19,01,59,6.80
2016,03,19,02,00,6.80
2016,03,19,02,01,6.80
2016,03,19,02,02,6.80
2016,03,19,02,03,6.80
2016,03,19,02,04,6.80
2016,03,19,02,05,6.80
2016,03,19,02,06,6.80
2016,03,19,02,07,6.80
2016,03,19,02,08,6.80
2016,03,19,02,09,6.80
2016,03,19,02,10,6.80
2016,03,19,02,11,6.80
2016,03,19,02,12,6.80
2016,03,19,02,13,6.80
2016,03,19,02,14,6.80
2016,03,19,02,15,6.80
2016,03,19,02,16,6.80
2016,03,19,02,17,6.80
2016,03,19,02,18,6.80
2016,03,19,02,19,6.80
2016,03,19,02,20,6.80
2016,03,19,02,21,6.80
2016,03,19,02,22,6.80
2016,03,19,02,23,6.80
2016,03,19,02,24,6.80
2016,03,19,02,25,6.80
2016,03,19,02,26,6.80
2016,03,19,02,27,6.80
2016,03,19,02,28,6.80
2016,03,19,02,29,6.80
2016,03,19,02,30,6.80
2016,03,19,02,31,6.80
2016,03,19,02,32,6.80
2016,03,19,02,33,6.80
2016,03,19,02,34,6.80
2016,03,19,02,35,6.80
2016,03,19,02,36,6.80
2016,03,19,02,37,6.80
2016,03,19,02,38,6.80
2016,03,19,02,39,6.80
2016,03,19,02,40,6.80
2016,03,19,02,41,6.80
2016,03,19,02,42,6.80
2016,03,19,02,43,6.80
2016,03,19,02,44,6.80
2016,03,19,02,45,6.80
2016,03,19,02,46,6.80
2016,03,19,02,47,6.80
2016,03,19,02,48,6.80
2016,03,19,02,49,6.80
2016,03,19,02,50,6.80
2016,03,19,02,51,6.80
2016,03,19,02,52,6.90
2016,03,19,02,53,6.90
2016,03,19,02,54,6.90
2016,03,19,02,55,6.90
2016,03,19,02,56,6.90
2016,03,19,02,57,7.00
2016,03,19,02,58,7.00
2016,03,19,02,59,7.00
2016,03,19,03,00,7.10
2016,03,19,03,01,7.10
2016,03,19,03,02,7.10
2016,03,19,03,03,7.10
2016,03,19,03,04,7.20
2016,03,19,03,05,7.20
2016,03,19,03,06,7.20
2016,03,19,03,07,7.20
2016,03,19,03,08,7.30
2016,03,19,03,09,7.30
2016,03,19,03,10,7.30
2016,03,19,03,11,7.40
2016,03,19,03,12,7.40
2016,03,19,03,13,7.40
2016,03,19,03,14,7.40
2016,03,19,03,15,7.40
2016,03,19,03,16,7.50
2016,03,19,03,17,7.50
2016,03,19,03,18,7.60
2016,03,19,03,19,7.60
2016,03,19,03,20,7.60
2016,03,19,03,21,7.60
2016,03,19,03,22,7.70
2016,03,19,03,23,7.70
2016,03,19,03,24,7.70
2016,03,19,03,25,7.70
2016,03,19,03,26,7.70
2016,03,19,03,27,7.70
2016,03,19,03,28,7.70
2016,03,19,03,29,7.80
2016,03,19,03,30,7.80
2016,03,19,03,31,7.80
2016,03,19,03,32,7.80
2016,03,19,03,33,7.80
2016,03,19,03,34,7.90
2016,03,19,03,35,7.90
2016,03,19,03,36,7.90
2016,03,19,03,37,8.00
2016,03,19,03,38,8.00
2016,03,19,03,39,8.00
2016,03,19,03,40,8.00
2016,03,19,03,41,8.00
2016,03,19,03,42,8.00
2016,03,19,03,43,8.00
2016,03,19,03,44,8.00
2016,03,19,03,45,8.00
2016,03,19,03,46,8.10
2016,03,19,03,47,8.10
2016,03,19,03,48,8.10
2016,03,19,03,49,8.10
2016,03,19,03,50,8.10
2016,03,19,03,51,8.10
2016,03,19,03,52,8.10
2016,03,19,03,53,8.10
2016,03,19,03,54,8.10
2016,03,19,03,55,8.10
2016,03,19,03,56,8.20
2016,03,19,03,57,8.20
2016,03,19,03,58,8.20
2016,03,19,03,59,8.20
2016,03,19,04,00,8.20
2016,03,19,04,01,8.20
2016,03,19,04,02,8.20
2016,03,19,04,03,8.20
2016,03,19,04,04,8.20
2016,03,19,04,05,8.20
2016,03,19,04,06,8.20
2016,03,19,04,07,8.20
2016,03,19,04,08,8.20
2016,03,19,04,09,8.20
2016,03,19,04,10,8.20
2016,03,19,04,11,8.20
2016,03,19,04,12,8.20
2016,03,19,04,13,8.20
2016,03,19,04,14,8.20
2016,03,19,04,15,8.20
2016,03,19,04,16,8.20
2016,03,19,04,17,8.20
2016,03,19,04,18,8.20
2016,03,19,04,19,8.20
2016,03,19,04,20,8.20
2016,03,19,04,21,8.20
2016,03,19,04,22,8.20
2016,03,19,04,23,8.20
2016,03,19,04,24,8.20
2016,03,19,04,25,8.10
2016,03,19,04,26,8.10
2016,03,19,04,27,8.10
2016,03,19,04,28,8.10
2016,03,19,04,29,8.10
2016,03,19,04,30,8.10
2016,03,19,04,31,8.10
2016,03,19,04,32,8.10
2016,03,19,04,33,8.10
2016,03,19,04,34,8.10
2016,03,19,04,35,8.10
2016,03,19,04,36,8.10
2016,03,19,04,37,8.10
2016,03,19,04,38,8.10
2016,03,19,04,39,8.10
2016,03,19,04,40,8.00
2016,03,19,04,41,8.00
2016,03,19,04,42,8.00
2016,03,19,04,43,8.00
2016,03,19,04,44,8.00
2016,03,19,04,45,8.00
2016,03,19,04,46,8.00
2016,03,19,04,47,7.90
2016,03,19,04,48,7.90
2016,03,19,04,49,7.90
2016,03,19,04,50,7.90
2016,03,19,04,51,7.90
2016,03,19,04,52,7.90
2016,03,19,04,53,7.90
2016,03,19,04,54,7.90
2016,03,19,04,55,7.80
2016,03,19,04,56,7.80
2016,03,19,04,57,7.80
2016,03,19,04,58,7.80
2016,03,19,04,59,7.80
2016,03,19,05,00,7.80
2016,03,19,05,01,7.80
2016,03,19,05,02,7.70
2016,03,19,05,03,7.70
2016,03,19,05,04,7.70
2016,03,19,05,05,7.70
2016,03,19,05,06,7.70
2016,03,19,05,07,7.70
2016,03,19,05,08,7.60
2016,03,19,05,09,7.60
2016,03,19,05,10,7.60
2016,03,19,05,11,7.60
2016,03,19,05,12,7.60
2016,03,19,05,13,7.50
2016,03,19,05,14,7.50
2016,03,19,05,15,7.40
2016,03,19,05,16,7.40
2016,03,19,05,17,7.30
2016,03,19,05,18,7.30
2016,03,19,05,19,7.30
2016,03,19,05,20,7.30
2016,03,19,05,21,7.20
2016,03,19,05,22,7.20
2016,03,19,05,23,7.20
2016,03,19,05,24,7.20
2016,03,19,05,25,7.20
2016,03,19,05,26,7.20
2016,03,19,05,27,7.20
2016,03,19,05,28,7.20
2016,03,19,05,29,7.20
2016,03,19,05,30,7.20
2016,03,19,05,31,7.20
2016,03,19,05,32,7.20
2016,03,19,05,33,7.20
2016,03,19,05,34,7.20
2016,03,19,05,35,7.10
2016,03,19,05,36,7.10
2016,03,19,05,37,7.10
2016,03,19,05,38,7.10
2016,03,19,05,39,7.10
2016,03,19,05,40,7.10
2016,03,19,05,41,7.00
2016,03,19,05,42,7.00
2016,03,19,05,43,7.00
2016,03,19,05,44,7.00
2016,03,19,05,45,7.00
2016,03,19,05,46,7.00
2016,03,19,05,47,6.90
2016,03,19,05,48,6.90
2016,03,19,05,49,6.90
2016,03,19,05,50,6.90
2016,03,19,05,51,6.90
2016,03,19,05,52,6.90
2016,03,19,05,53,6.90
2016,03,19,05,54,6.90
2016,03,19,05,55,6.90
2016,03,19,05,56,6.90
2016,03,19,05,57,6.90
2016,03,19,05,58,6.90
2016,03,19,05,59,6.90
2016,03,19,06,00,6.90
2016,03,19,06,01,6.90
2016,03,19,06,02,6.90
2016,03,19,06,03,6.90
2016,03,19,06,04,6.90
2016,03,19,06,05,6.90
2016,03,19,06,06,6.90
2016,03,19,06,07,6.90
2016,03,19,06,08,6.90
2016,03,19,06,09,6.90
2016,03,19,06,10,6.90
2016,03,19,06,11,6.90
2016,03,19,06,12,6.80
2016,03,19,06,13,6.80
2016,03,19,06,14,6.80
2016,03,19,06,15,6.80
2016,03,19,06,16,6.80
2016,03,19,06,17,6.80
2016,03,19,06,18,6.80
2016,03,19,06,19,6.80
2016,03,19,06,20,6.80
2016,03,19,06,21,6.80
2016,03,19,06,22,6.80
2016,03,19,06,23,6.80
2016,03,19,06,24,6.80
2016,03,19,06,25,6.70
2016,03,19,06,26,6.70
2016,03,19,06,27,6.70
2016,03,19,06,28,6.70
2016,03,19,06,29,6.70
2016,03,19,06,30,6.70
2016,03,19,06,31,6.70
2016,03,19,06,32,6.70
2016,03,19,06,33,6.60
2016,03,19,06,34,6.60
2016,03,19,06,35,6.60
2016,03,19,06,36,6.60
2016,03,19,06,37,6.60
2016,03,19,06,38,6.60
2016,03,19,06,39,6.60
2016,03,19,06,40,6.60
2016,03,19,06,41,6.60
2016,03,19,06,42,6.60
2016,03,19,06,43,6.60
2016,03,19,06,44,6.60
2016,03,19,06,45,6.60
2016,03,19,06,46,6.60
2016,03,19,06,47,6.60
2016,03,19,06,48,6.50
2016,03,19,06,49,6.50
2016,03,19,06,50,6.50
2016,03,19,06,51,6.50
2016,03,19,06,52,6.50
2016,03,19,06,53,6.50
2016,03,19,06,54,6.50
2016,03,19,06,55,6.50
2016,03,19,06,56,6.50
2016,03,19,06,57,6.50
2016,03,19,06,58,6.50
2016,03,19,06,59,6.50
2016,03,19,07,00,6.50
2016,03,19,07,01,6.50
2016,03,19,07,02,6.50
2016,03,19,07,03,6.50
2016,03,19,07,04,6.50
2016,03,19,07,05,6.50
2016,03,19,07,06,6.50
2016,03,19,07,07,6.50
2016,03,19,07,08,6.50
2016,03,19,07,09,6.50
2016,03,19,07,10,6.50
2016,03,19,07,11,6.50
2016,03,19,07,12,6.50
2016,03,19,07,13,6.50
2016,03,19,07,14,6.50
2016,03,19,07,15,6.50
2016,03,19,07,16,6.50
2016,03,19,07,17,6.50
2016,03,19,07,18,6.50
2016,03,19,07,19,6.50
2016,03,19,07,20,6.50
2016,03,19,07,21,6.50
2016,03,19,07,22,6.50
2016,03,19,07,23,6.50
2016,03,19,07,24,6.50
2016,03,19,07,25,6.50
2016,03,19,07,26,6.50
2016,03,19,07,27,6.40
2016,03,19,07,28,6.40
2016,03,19,07,29,6.40
2016,03,19,07,30,6.40
2016,03,19,07,31,6.40
2016,03,19,07,32,6.40
2016,03,19,07,33,6.40
2016,03,19,07,34,6.40
2016,03,19,07,35,6.40
2016,03,19,07,36,6.40
2016,03,19,07,37,6.40
2016,03,19,07,38,6.40
2016,03,19,07,39,6.40
2016,03,19,07,40,6.40
2016,03,19,07,41,6.40
2016,03,19,07,42,6.40
2016,03,19,07,43,6.40
2016,03,19,07,44,6.40
2016,03,19,07,45,6.40
2016,03,19,07,46,6.40
2016,03,19,07,47,6.40
2016,03,19,07,48,6.40
2016,03,19,07,49,6.40
2016,03,19,07,50,6.40
2016,03,19,07,51,6.40
2016,03,19,07,52,6.40
2016,03,19,07,53,6.50
2016,03,19,07,54,6.50
2016,03,19,07,55,6.50
2016,03,19,07,56,6.50
2016,03,19,07,57,6.50
2016,03,19,07,58,6.50
2016,03,19,07,59,6.50
2016,03,19,08,00,6.50
2016,03,19,08,01,6.60
2016,03,19,08,02,6.60
2016,03,19,08,03,6.60
2016,03,19,08,04,6.60
2016,03,19,08,05,6.60
2016,03,19,08,06,6.60
2016,03,19,08,07,6.60
2016,03,19,08,08,6.70
2016,03,19,08,09,6.70
2016,03,19,08,10,6.70
2016,03,19,08,11,6.70
2016,03,19,08,12,6.70
2016,03,19,08,13,6.80
2016,03,19,08,14,6.80
2016,03,19,08,15,6.80
2016,03,19,08,16,6.80
2016,03,19,08,17,6.90
2016,03,19,08,18,6.90
2016,03,19,08,19,6.90
2016,03,19,08,20,6.90
2016,03,19,08,21,7.00
2016,03,19,08,22,7.00
2016,03,19,08,23,7.00
2016,03,19,08,24,7.00
2016,03,19,08,25,7.10
2016,03,19,08,26,7.10
2016,03,19,08,27,7.20
2016,03,19,08,28,7.20
2016,03,19,08,29,7.30
2016,03,19,08,30,7.30
2016,03,19,08,31,7.40
2016,03,19,08,32,7.40
2016,03,19,08,33,7.50
2016,03,19,08,34,7.50
2016,03,19,08,35,7.60
2016,03,19,08,36,7.70
2016,03,19,08,37,7.70
2016,03,19,08,38,7.80
2016,03,19,08,39,7.80
2016,03,19,08,40,7.90
2016,03,19,08,41,8.00
2016,03,19,08,42,8.00
2016,03,19,08,43,8.10
2016,03,19,08,44,8.20
2016,03,19,08,45,8.20
2016,03,19,08,46,8.30
2016,03,19,08,47,8.30
2016,03,19,08,48,8.40
2016,03,19,08,49,8.40
2016,03,19,08,50,8.40
2016,03,19,08,51,8.40
2016,03,19,08,52,8.50
2016,03,19,08,53,8.50
2016,03,19,08,54,8.60
2016,03,19,08,55,8.70
2016,03,19,08,56,8.70
2016,03,19,08,57,8.70
2016,03,19,08,58,8.70
2016,03,19,08,59,8.80
2016,03,19,09,00,8.80
2016,03,19,09,01,8.90
2016,03,19,09,02,8.90
2016,03,19,09,03,9.00
2016,03,19,09,04,9.00
2016,03,19,09,05,9.10
2016,03,19,09,06,9.10
2016,03,19,09,07,9.20
2016,03,19,09,08,9.20
2016,03,19,09,09,9.30
2016,03,19,09,10,9.30
2016,03,19,09,11,9.40
2016,03,19,09,12,9.40
2016,03,19,09,13,9.40
2016,03,19,09,14,9.50
2016,03,19,09,15,9.50
2016,03,19,09,16,9.50
2016,03,19,09,17,9.60
2016,03,19,09,18,9.60
2016,03,19,09,19,9.70
2016,03,19,09,20,9.70
2016,03,19,09,21,9.80
2016,03,19,09,22,9.90
2016,03,19,09,23,9.90
2016,03,19,09,24,10.00
2016,03,19,09,25,10.00
2016,03,19,09,26,10.10
2016,03,19,09,27,10.10
2016,03,19,09,28,10.10
2016,03,19,09,29,10.10
2016,03,19,09,30,10.10
2016,03,19,09,31,10.20
2016,03,19,09,32,10.20
2016,03,19,09,33,10.20
2016,03,19,09,34,10.30
2016,03,19,09,35,10.30
2016,03,19,09,36,10.30
2016,03,19,09,37,10.30
2016,03,19,09,38,10.30
2016,03,19,09,39,10.40
2016,03,19,09,40,10.40
2016,03,19,09,41,10.50
2016,03,19,09,42,10.60
2016,03,19,09,43,10.80
2016,03,19,09,44,11.00
2016,03,19,09,45,11.10
2016,03,19,09,46,11.20
2016,03,19,09,47,11.30
2016,03,19,09,48,11.50
2016,03,19,09,49,11.60
2016,03,19,09,50,11.60
2016,03,19,09,51,11.60
2016,03,19,09,52,11.50
2016,03,19,09,53,11.40
2016,03,19,09,54,11.40
2016,03,19,09,55,11.50
2016,03,19,09,56,11.60
2016,03,19,09,57,11.80
2016,03,19,09,58,11.90
2016,03,19,09,59,12.00
2016,03,19,10,00,12.00
2016,03,19,10,01,11.90
2016,03,19,10,02,11.90
2016,03,19,10,03,11.80
2016,03,19,10,04,11.80
2016,03,19,10,05,11.90
2016,03,19,10,06,12.00
2016,03,19,10,07,12.10
2016,03,19,10,08,12.20
2016,03,19,10,09,12.30
2016,03,19,10,10,12.30
2016,03,19,10,11,12.30
2016,03,19,10,12,12.30
2016,03,19,10,13,12.40
2016,03,19,10,14,12.40
2016,03,19,10,15,12.40
2016,03,19,10,16,12.30
2016,03,19,10,17,12.30
2016,03,19,10,18,12.30
2016,03,19,10,19,12.30
2016,03,19,10,20,12.30
2016,03,19,10,21,12.30
2016,03,19,10,22,12.20
2016,03,19,10,23,12.10
2016,03,19,10,24,12.10
2016,03,19,10,25,12.10
2016,03,19,10,26,12.10
2016,03,19,10,27,12.20
2016,03,19,10,28,12.20
2016,03,19,10,29,12.30
2016,03,19,10,30,12.30
2016,03,19,10,31,12.30
2016,03,19,10,32,12.30
2016,03,19,10,33,12.40
2016,03,19,10,34,12.60
2016,03,19,10,35,12.70
2016,03,19,10,36,12.80
2016,03,19,10,37,12.90
2016,03,19,10,38,12.90
2016,03,19,10,39,12.90
2016,03,19,10,40,12.80
2016,03,19,10,41,12.70
2016,03,19,10,42,12.60
2016,03,19,10,43,12.40
2016,03,19,10,44,12.30
2016,03,19,10,45,12.20
2016,03,19,10,46,12.20
2016,03,19,10,47,12.10
2016,03,19,10,48,12.10
2016,03,19,10,49,12.20
2016,03,19,10,50,12.20
2016,03,19,10,51,12.20
2016,03,19,10,52,12.20
2016,03,19,10,53,12.20
2016,03,19,10,54,12.20
2016,03,19,10,55,12.20
2016,03,19,10,56,12.20
2016,03,19,10,57,12.20
2016,03,19,10,58,12.20
2016,03,19,10,59,12.20
2016,03,19,11,00,12.20
2016,03,19,11,01,12.20
2016,03,19,11,02,12.30
2016,03,19,11,03,12.50
2016,03,19,11,04,12.60
2016,03,19,11,05,12.70
2016,03,19,11,06,12.80
2016,03,19,11,07,12.90
2016,03,19,11,08,13.00
2016,03,19,11,09,13.10
2016,03,19,11,10,13.10
2016,03,19,11,11,13.10
2016,03,19,11,12,13.10
2016,03,19,11,13,13.00
2016,03,19,11,14,13.00
2016,03,19,11,15,12.90
2016,03,19,11,16,12.90
2016,03,19,11,17,12.90
2016,03,19,11,18,12.90
2016,03,19,11,19,12.90
2016,03,19,11,20,12.90
2016,03,19,11,21,13.00
2016,03,19,11,22,13.20
2016,03,19,11,23,13.30
2016,03,19,11,24,13.50
2016,03,19,11,25,13.60
2016,03,19,11,26,13.70
2016,03,19,11,27,13.90
2016,03,19,11,28,14.20
2016,03,19,11,29,14.40
2016,03,19,11,30,14.40
2016,03,19,11,31,14.30
2016,03,19,11,32,14.30
2016,03,19,11,33,14.30
2016,03,19,11,34,14.10
2016,03,19,11,35,14.00
2016,03,19,11,36,13.80
2016,03,19,11,37,13.80
2016,03,19,11,38,13.80
2016,03,19,11,39,13.80
2016,03,19,11,40,13.70
2016,03,19,11,41,13.60
2016,03,19,11,42,13.60
2016,03,19,11,43,13.60
2016,03,19,11,44,13.50
2016,03,19,11,45,13.40
2016,03,19,11,46,13.40
2016,03,19,11,47,13.30
2016,03,19,11,48,13.30
2016,03,19,11,49,13.20
2016,03,19,11,50,13.10
2016,03,19,11,51,13.00
2016,03,19,11,52,12.90
2016,03,19,11,53,12.90
2016,03,19,11,54,12.80
2016,03,19,11,55,12.80
2016,03,19,11,56,12.80
2016,03,19,11,57,12.80
2016,03,19,11,58,12.70
2016,03,19,11,59,12.60
2016,03,19,12,00,12.60
2016,03,19,12,01,12.60
2016,03,19,12,02,12.60
2016,03,19,12,03,12.70
2016,03,19,12,04,12.60
2016,03,19,12,05,12.60
2016,03,19,12,06,12.60
2016,03,19,12,07,12.60
2016,03,19,12,08,12.50
2016,03,19,12,09,12.60
2016,03,19,12,10,12.60
2016,03,19,12,11,12.70
2016,03,19,12,12,12.90
2016,03,19,12,13,13.00
2016,03,19,12,14,13.10
2016,03,19,12,15,13.10
2016,03,19,12,16,13.00
2016,03,19,12,17,13.00
2016,03,19,12,18,13.00
2016,03,19,12,19,13.00
2016,03,19,12,20,13.10
2016,03,19,12,21,13.20
2016,03,19,12,22,13.30
2016,03,19,12,23,13.30
2016,03,19,12,24,13.30
2016,03,19,12,25,13.30
2016,03,19,12,26,13.30
2016,03,19,12,27,13.30
2016,03,19,12,28,13.50
2016,03,19,12,29,13.50
2016,03,19,12,30,13.70
2016,03,19,12,31,13.70
2016,03,19,12,32,13.70
2016,03,19,12,33,13.60
2016,03,19,12,34,13.50
2016,03,19,12,35,13.50
2016,03,19,12,36,13.50
2016,03,19,12,37,13.40
2016,03,19,12,38,13.40
2016,03,19,12,39,13.40
2016,03,19,12,40,13.30
2016,03,19,12,41,13.30
2016,03,19,12,42,13.20
2016,03,19,12,43,13.10
2016,03,19,12,44,13.10
2016,03,19,12,45,13.10
2016,03,19,12,46,13.10
2016,03,19,12,47,13.10
2016,03,19,12,48,13.00
2016,03,19,12,49,12.90
2016,03,19,12,50,12.80
2016,03,19,12,51,12.70
2016,03,19,12,52,12.70
2016,03,19,12,53,12.70
2016,03,19,12,54,12.80
2016,03,19,12,55,12.80
2016,03,19,12,56,12.90
2016,03,19,12,57,12.90
2016,03,19,12,58,13.00
2016,03,19,12,59,13.00
2016,03,19,13,00,13.00
2016,03,19,13,01,12.90
2016,03,19,13,02,12.90
2016,03,19,13,03,12.90
2016,03,19,13,04,12.80
2016,03,19,13,05,12.70
2016,03,19,13,06,12.60
2016,03,19,13,07,12.50
2016,03,19,13,08,12.40
2016,03,19,13,09,12.40
2016,03,19,13,10,12.40
2016,03,19,13,11,12.40
2016,03,19,13,12,12.40
2016,03,19,13,13,12.40
2016,03,19,13,14,12.40
2016,03,19,13,15,12.40
2016,03,19,13,16,12.50
2016,03,19,13,17,12.60
2016,03,19,13,18,12.60
2016,03,19,13,19,12.60
2016,03,19,13,20,12.60
2016,03,19,13,21,12.60
2016,03,19,13,22,12.60
2016,03,19,13,23,12.60
2016,03,19,13,24,12.50
2016,03,19,13,25,12.50
2016,03,19,13,26,12.40
2016,03,19,13,27,12.30
2016,03,19,13,28,12.30
2016,03,19,13,29,12.20
2016,03,19,13,30,12.30
2016,03,19,13,31,12.30
2016,03,19,13,32,12.30
2016,03,19,13,33,12.30
2016,03,19,13,34,12.30
2016,03,19,13,35,12.30
2016,03,19,13,36,12.30
2016,03,19,13,37,12.20
2016,03,19,13,38,12.20
2016,03,19,13,39,12.10
2016,03,19,13,40,12.20
2016,03,19,13,41,12.30
2016,03,19,13,42,12.40
2016,03,19,13,43,12.40
2016,03,19,13,44,12.30
2016,03,19,13,45,12.30
2016,03,19,13,46,12.20
2016,03,19,13,47,12.20
2016,03,19,13,48,12.20
2016,03,19,13,49,12.20
2016,03,19,13,50,12.20
2016,03,19,13,51,12.20
2016,03,19,13,52,12.20
2016,03,19,13,53,12.30
2016,03,19,13,54,12.40
2016,03,19,13,55,12.50
2016,03,19,13,56,12.50
2016,03,19,13,57,12.60
2016,03,19,13,58,12.60
2016,03,19,13,59,12.70
2016,03,19,14,00,12.80
2016,03,19,14,01,12.80
2016,03,19,14,02,12.80
2016,03,19,14,03,12.80
2016,03,19,14,04,12.80
2016,03,19,14,05,12.80
2016,03,19,14,06,12.80
2016,03,19,14,07,12.90
2016,03,19,14,08,13.00
2016,03,19,14,09,13.10
2016,03,19,14,10,13.10
2016,03,19,14,11,13.20
2016,03,19,14,12,13.20
2016,03,19,14,13,13.20
2016,03,19,14,14,13.30
2016,03,19,14,15,13.30
2016,03,19,14,16,13.30
2016,03,19,14,17,13.40
2016,03,19,14,18,13.40
2016,03,19,14,19,13.50
2016,03,19,14,20,13.60
2016,03,19,14,21,13.60
2016,03,19,14,22,13.60
2016,03,19,14,23,13.60
2016,03,19,14,24,13.50
2016,03,19,14,25,13.40
2016,03,19,14,26,13.40
2016,03,19,14,27,13.50
2016,03,19,14,28,13.60
2016,03,19,14,29,13.70
2016,03,19,14,30,13.70
2016,03,19,14,31,13.70
2016,03,19,14,32,13.80
2016,03,19,14,33,13.80
2016,03,19,14,34,13.70
2016,03,19,14,35,13.70
2016,03,19,14,36,13.60
2016,03,19,14,37,13.60
2016,03,19,14,38,13.60
2016,03,19,14,39,13.70
2016,03,19,14,40,13.70
2016,03,19,14,41,13.70
2016,03,19,14,42,13.70
2016,03,19,14,43,13.60
2016,03,19,14,44,13.60
2016,03,19,14,45,13.70
2016,03,19,14,46,13.80
2016,03,19,14,47,13.80
2016,03,19,14,48,13.80
2016,03,19,14,49,13.70
2016,03,19,14,50,13.70
2016,03,19,14,51,13.70
2016,03,19,14,52,13.70
2016,03,19,14,53,13.80
2016,03,19,14,54,13.80
2016,03,19,14,55,13.90
2016,03,19,14,56,13.80
2016,03,19,14,57,13.70
2016,03,19,14,58,13.70
2016,03,19,14,59,13.70
2016,03,19,15,00,13.60
2016,03,19,15,01,13.60
2016,03,19,15,02,13.70
2016,03,19,15,03,13.70
2016,03,19,15,04,13.70
2016,03,19,15,05,13.70
2016,03,19,15,06,13.80
2016,03,19,15,07,13.80
2016,03,19,15,08,13.90
2016,03,19,15,09,13.80
2016,03,19,15,10,13.80
2016,03,19,15,11,13.80
2016,03,19,15,12,13.80
2016,03,19,15,13,13.80
2016,03,19,15,14,13.80
2016,03,19,15,15,13.80
2016,03,19,15,16,13.80
2016,03,19,15,17,13.90
2016,03,19,15,18,13.90
2016,03,19,15,19,13.90
2016,03,19,15,20,13.90
2016,03,19,15,21,13.80
2016,03,19,15,22,13.70
2016,03,19,15,23,13.60
2016,03,19,15,24,13.60
2016,03,19,15,25,13.60
2016,03,19,15,26,13.50
2016,03,19,15,27,13.50
2016,03,19,15,28,13.60
2016,03,19,15,29,13.60
2016,03,19,15,30,13.70
2016,03,19,15,31,13.80
2016,03,19,15,32,13.90
2016,03,19,15,33,13.90
2016,03,19,15,34,14.00
2016,03,19,15,35,14.10
2016,03,19,15,36,14.10
2016,03,19,15,37,14.10
2016,03,19,15,38,14.00
2016,03,19,15,39,14.00
2016,03,19,15,40,14.00
2016,03,19,15,41,13.90
2016,03,19,15,42,13.90
2016,03,19,15,43,13.70
2016,03,19,15,44,13.60
2016,03,19,15,45,13.60
2016,03,19,15,46,13.50
2016,03,19,15,47,13.50
2016,03,19,15,48,13.60
2016,03,19,15,49,13.60
2016,03,19,15,50,13.70
2016,03,19,15,51,13.80
2016,03,19,15,52,13.80
2016,03,19,15,53,13.80
2016,03,19,15,54,13.80
2016,03,19,15,55,13.80
2016,03,19,15,56,13.70
2016,03,19,15,57,13.70
2016,03,19,15,58,13.60
2016,03,19,15,59,13.50
2016,03,19,16,00,13.40
2016,03,19,16,01,13.30
2016,03,19,16,02,13.30
2016,03,19,16,03,13.30
2016,03,19,16,04,13.20
2016,03,19,16,05,13.10
2016,03,19,16,06,13.10
2016,03,19,16,07,13.10
2016,03,19,16,08,13.00
2016,03,19,16,09,13.10
2016,03,19,16,10,13.10
2016,03,19,16,11,13.00
2016,03,19,16,12,13.00
2016,03,19,16,13,13.00
2016,03,19,16,14,13.00
2016,03,19,16,15,13.00
2016,03,19,16,16,13.10
2016,03,19,16,17,13.20
2016,03,19,16,18,13.20
2016,03,19,16,19,13.20
2016,03,19,16,20,13.30
2016,03,19,16,21,13.20
2016,03,19,16,22,13.20
2016,03,19,16,23,13.20
2016,03,19,16,24,13.20
2016,03,19,16,25,13.20
2016,03,19,16,26,13.20
2016,03,19,16,27,13.20
2016,03,19,16,28,13.20
2016,03,19,16,29,13.30
2016,03,19,16,30,13.30
2016,03,19,16,31,13.30
2016,03,19,16,32,13.30
2016,03,19,16,33,13.20
2016,03,19,16,34,13.20
2016,03,19,16,35,13.20
2016,03,19,16,36,13.20
2016,03,19,16,37,13.20
2016,03,19,16,38,13.20
2016,03,19,16,39,13.20
2016,03,19,16,40,13.10
2016,03,19,16,41,13.10
2016,03,19,16,42,13.10
2016,03,19,16,43,13.10
2016,03,19,16,44,13.10
2016,03,19,16,45,13.10
2016,03,19,16,46,13.10
2016,03,19,16,47,13.10
2016,03,19,16,48,13.10
2016,03,19,16,49,13.10
2016,03,19,16,50,13.10
2016,03,19,16,51,13.10
2016,03,19,16,52,13.10
2016,03,19,16,53,13.10
2016,03,19,16,54,13.10
2016,03,19,16,55,13.10
2016,03,19,16,56,13.10
2016,03,19,16,57,13.10
2016,03,19,16,58,13.10
2016,03,19,16,59,13.00
2016,03,19,17,00,13.00
2016,03,19,17,01,13.00
2016,03,19,17,02,12.90
2016,03,19,17,03,12.90
2016,03,19,17,04,12.90
2016,03,19,17,05,12.90
2016,03,19,17,06,12.90
2016,03,19,17,07,12.90
2016,03,19,17,08,12.90
2016,03,19,17,09,12.90
2016,03,19,17,10,12.90
2016,03,19,17,11,12.80
2016,03,19,17,12,12.80
2016,03,19,17,13,12.80
2016,03,19,17,14,12.80
2016,03,19,17,15,12.70
2016,03,19,17,16,12.70
2016,03,19,17,17,12.70
2016,03,19,17,18,12.70
2016,03,19,17,19,12.70
2016,03,19,17,20,12.70
2016,03,19,17,21,12.60
2016,03,19,17,22,12.60
2016,03,19,17,23,12.60
2016,03,19,17,24,12.60
2016,03,19,17,25,12.60
2016,03,19,17,26,12.60
2016,03,19,17,27,12.60
2016,03,19,17,28,12.60
2016,03,19,17,29,12.60
2016,03,19,17,30,12.60
2016,03,19,17,31,12.60
2016,03,19,17,32,12.60
2016,03,19,17,33,12.60
2016,03,19,17,34,12.60
2016,03,19,17,35,12.60
2016,03,19,17,36,12.60
2016,03,19,17,37,12.60
2016,03,19,17,38,12.60
2016,03,19,17,39,12.60
2016,03,19,17,40,12.60
2016,03,19,17,41,12.60
2016,03,19,17,42,12.60
2016,03,19,17,43,12.60